Location: Arcadia
(34.1397°N, 118.0353°W)
Time: 20:33:52
(UTC+00:00)

COSMOS 2455 - Pass Details

Date: 08 September 2024
Orbit: 898 x 910 km, 67.1° (Epoch: 11 October)

Event Time Altitude Azimuth Distance (km) Brightness Sun altitude
Exits shadow 12:36:59 15° 262° (W) 2,229 4.2 -11.8°
Maximum altitude 12:40:29 25° 306° (NW) 1,754 4.0 -11.1°
Drops below altitude 10° 12:45:21 10° 1° (N) 2,599 5.4 -10.1°
Sets 12:48:22 0° 14° (NNE) 3,545 6.3 -9.5°
